Location: Canet
(43.3261°N, 5.3723°E)
Time: 09:48:10
(UTC+00:00)

N. Korean satellite - Visible Passes

Search period start: 26 September 2021 00:00
Search period end: 06 October 2021 00:00
Orbit: 449 x 498 km, 97.3° (Epoch: 25 September)

Date Brightness Start Highest point End Pass type
(mag) Time Alt. Az. Time Alt. Az. Time Alt. Az.
26 Sep 7.8 04:38:50 10° NNE 04:42:16 45° E 04:45:45 10° S visible
27 Sep 9.4 04:11:36 10° NE 04:14:22 21° E 04:17:09 10° SE visible
29 Sep 7.1 04:48:30 10° NNE 04:52:04 63° E 04:55:39 10° S visible
30 Sep 8.9 04:21:02 10° NE 04:24:09 27° E 04:27:18 10° SSE visible
01 Oct 9.9 03:54:23 10° ENE 03:56:08 13° E 03:57:53 10° ESE visible
02 Oct 6.6 04:58:07 10° NNE 05:01:44 85° ESE 05:05:22 10° SSW visible
03 Oct 8.3 04:30:28 10° NNE 04:33:49 36° E 04:37:12 10° SSE visible
04 Oct 9.7 04:03:20 10° NE 04:05:48 17° E 04:08:15 10° SE visible
05 Oct 6.5 05:07:40 10° N 05:11:17 71° WNW 05:14:55 10° SSW visible
